GW4616 Weather Reports


Display with metric or nautical units.
time (UTC)temp
F
wind
direction
speed
MPH
gust
MPH
rain 1hr
in
rain 24hr
in
rain mn
in
humidity
%
barometer
mb
20260509212741 68 9 3.0 7.0 0.00 0.00 0.00 51 1007.5
20260509212238 68 32 4.0 7.0 0.00 0.00 0.00 50 1007.5
20260509211733 67 350 4.0 7.0 0.00 0.00 0.00 52 1007.6
20260509211230 67 37 5.0 7.0 0.00 0.00 0.00 49 1007.4
20260509210727 68 38 3.0 9.0 0.00 0.00 0.00 51 1007.2
20260509210225 69 26 6.0 8.0 0.00 0.00 0.00 48 1007.2
20260509205724 69 21 3.0 6.0 0.00 0.00 0.00 48 1007.2
20260509205224 68 17 4.0 6.0 0.00 0.00 0.00 48 1007.2
20260509204720 69 21 6.0 8.0 0.00 0.00 0.00 49 1007.2
20260509204216 70 48 6.0 8.0 0.00 0.00 0.00 45 1007.1
20260509203712 69 32 7.0 9.0 0.00 0.00 0.00 47 1007.1
20260509203212 68 34 5.0 8.0 0.00 0.00 0.00 48 1007.0
20260509202712 67 40 3.0 4.0 0.00 0.00 0.00 51 1007.2
20260509202207 67 36 2.0 6.0 0.00 0.00 0.00 51 1007.0
20260509201702 67 42 2.0 4.0 0.00 0.00 0.00 48 1007.1
20260509201200 67 45 4.0 7.0 0.00 0.00 0.00 47 1006.9
20260509200656 67 32 3.0 7.0 0.00 0.00 0.00 46 1007.0
20260509200152 67 18 2.0 4.0 0.00 0.00 0.00 46 1007.0
20260509195648 67 24 2.0 3.0 0.00 0.00 0.00 48 1006.9
20260509195143 68 16 2.0 4.0 0.00 0.00 0.00 47 1006.9
20260509194642 68 61 2.0 4.0 0.00 0.00 0.00 46 1007.0
20260509194140 69 67 2.0 2.0 0.00 0.00 0.00 46 1007.1
20260509193635 69 14 1.0 3.0 0.00 0.00 0.00 47 1007.1
20260509193131 69 10 1.0 4.0 0.00 0.00 0.00 47 1007.0
20260509192628 69 22 1.0 1.0 0.00 0.00 0.00 47 1007.2
20260509192123 70 21 1.0 2.0 0.00 0.00 0.00 42 1007.2
20260509191617 69 314 2.0 3.0 0.00 0.00 0.00 44 1007.3
20260509191114 70 43 3.0 4.0 0.00 0.00 0.00 45 1007.4
20260509190611 70 10 3.0 4.0 0.00 0.00 0.00 43 1007.4
20260509190109 70 45 2.0 4.0 0.00 0.00 0.00 47 1007.5
20260509185606 69 103 1.0 2.0 0.00 0.00 0.00 45 1007.4
20260509185102 68 10 0.0 4.0 0.00 0.00 0.00 47 1007.4
20260509184600 68 27 4.0 4.0 0.00 0.00 0.00 50 1007.4
20260509184057 67 338 0.0 1.0 0.00 0.00 0.00 53 1007.5
20260509183552 66 7 1.0 2.0 0.00 0.00 0.00 50 1007.5
20260509183048 66 323 2.0 2.0 0.00 0.00 0.00 48 1007.4
20260509182545 66 353 1.0 2.0 0.00 0.00 0.00 50 1007.7
20260509182041 66 300 1.0 2.0 0.00 0.00 0.00 47 1007.8
20260509181540 65 277 2.0 3.0 0.00 0.00 0.00 47 1007.9
20260509181037 65 237 0.0 1.0 0.00 0.00 0.00 50 1007.8
20260509180532 65 289 0.0 2.0 0.00 0.00 0.00 49 1008.0
20260509180031 65 272 2.0 3.0 0.00 0.00 0.00 50 1008.0
20260509175531 65 264 2.0 4.0 0.00 0.00 0.00 49 1008.0
20260509175028 65 227 0.0 0.0 0.00 0.00 0.00 50 1008.1
20260509174524 65 222 2.0 3.0 0.00 0.00 0.00 50 1008.1
20260509174020 65 182 1.0 2.0 0.00 0.00 0.00 50 1008.2
20260509173514 65 252 3.0 3.0 0.00 0.00 0.00 48 1008.1
20260509173011 65 207 3.0 4.0 0.00 0.00 0.00 49 1008.4
20260509172508 65 254 1.0 3.0 0.00 0.00 0.00 53 1008.4
20260509172004 65 22 2.0 3.0 0.00 0.00 0.00 52 1008.5
20260509171500 64 292 0.0 2.0 0.00 0.00 0.00 53 1008.6
20260509170957 64 238 1.0 2.0 0.00 0.00 0.00 52 1008.5
20260509170452 64 268 1.0 2.0 0.00 0.00 0.00 55 1008.4
20260509165948 63 269 0.0 1.0 0.00 0.00 0.00 57 1008.2
20260509165447 63 338 0.0 0.0 0.00 0.00 0.00 54 1008.6
20260509164942 63 42 0.0 0.0 0.00 0.00 0.00 55 1008.7
20260509164439 62 103 0.0 1.0 0.00 0.00 0.00 55 1008.7
20260509163935 62 148 1.0 2.0 0.00 0.00 0.00 57 1008.8
20260509163432 62 88 0.0 1.0 0.00 0.00 0.00 54 1008.6
20260509162931 62 76 0.0 0.0 0.00 0.00 0.00 58 1009.0
20260509162430 62 52 0.0 0.0 0.00 0.00 0.00 58 1008.8
20260509161926 61 74 1.0 2.0 0.00 0.00 0.00 56 1009.1
20260509161422 61 55 1.0 2.0 0.00 0.00 0.00 60 1009.6
20260509160918 61 65 0.0 1.0 0.00 0.00 0.00 59 1009.4
20260509160413 61 352 3.0 3.0 0.00 0.00 0.00 59 1009.4
20260509155909 60 64 2.0 2.0 0.00 0.00 0.00 59 1009.2
20260509155406 60 32 1.0 3.0 0.00 0.00 0.00 59 1009.2
20260509154902 61 32 3.0 4.0 0.00 0.00 0.00 58 1009.2
20260509154359 61 60 3.0 3.0 0.00 0.00 0.00 58 1009.1
20260509153855 61 17 4.0 6.0 0.00 0.00 0.00 56 1009.1
20260509153353 61 34 3.0 7.0 0.00 0.00 0.00 56 1009.1
20260509152849 61 36 3.0 6.0 0.00 0.00 0.00 58 1008.9
20260509152345 61 40 5.0 6.0 0.00 0.00 0.00 57 1008.6
20260509151843 61 33 1.0 6.0 0.00 0.00 0.00 58 1008.9
20260509151339 60 43 5.0 6.0 0.00 0.00 0.00 59 1008.9
20260509150837 60 44 4.0 6.0 0.00 0.00 0.00 58 1009.1
20260509150335 61 66 2.0 3.0 0.00 0.00 0.00 59 1009.1
20260509145832 60 63 1.0 3.0 0.00 0.00 0.00 59 1009.2
20260509145327 61 49 4.0 7.0 0.00 0.00 0.00 59 1008.9
20260509144823 61 43 4.0 7.0 0.00 0.00 0.00 58 1009.1
20260509144320 61 350 4.0 7.0 0.00 0.00 0.00 55 1008.9
20260509143818 61 336 2.0 3.0 0.00 0.00 0.00 57 1009.0
20260509143315 60 41 2.0 4.0 0.00 0.00 0.00 57 1008.9
20260509142811 60 29 2.0 7.0 0.00 0.00 0.00 58 1009.0
20260509142307 60 324 6.0 7.0 0.00 0.00 0.00 55 1009.0
20260509141802 59 30 3.0 4.0 0.00 0.00 0.00 56 1008.9
20260509141300 59 23 2.0 3.0 0.00 0.00 0.00 60 1008.9
20260509140756 58 19 3.0 4.0 0.00 0.00 0.00 62 1009.0
20260509140254 58 23 1.0 2.0 0.00 0.00 0.00 65 1009.2
20260509135752 58 28 3.0 3.0 0.00 0.00 0.00 62 1009.4
20260509135249 58 348 2.0 3.0 0.00 0.00 0.00 60 1009.2
20260509134745 58 29 3.0 3.0 0.00 0.00 0.00 62 1009.1
20260509134243 58 37 1.0 3.0 0.00 0.00 0.00 62 1009.5
20260509133740 57 5 2.0 2.0 0.00 0.00 0.00 62 1009.2
20260509133237 57 14 2.0 4.0 0.00 0.00 0.00 63 1009.2
20260509132735 56 7 2.0 4.0 0.00 0.00 0.00 65 1009.5
20260509132234 56 336 1.0 2.0 0.00 0.00 0.00 66 1009.4
20260509131730 56 6 0.0 0.0 0.00 0.00 0.00 68 1009.1
20260509131227 56 357 0.0 0.0 0.00 0.00 0.00 66 1009.2
20260509130722 56 356 0.0 1.0 0.00 0.00 0.00 65 1009.0
20260509130218 56 300 0.0 0.0 0.00 0.00 0.00 65 1009.2
20260509125715 56 348 0.0 1.0 0.00 0.00 0.00 66 1009.0
20260509125213 56 348 0.0 0.0 0.00 0.00 0.00 65 1008.9
20260509124708 55 348 0.0 0.0 0.00 0.00 0.00 67 1009.0
20260509124205 55 348 0.0 0.0 0.00 0.00 0.00 67 1008.9
20260509123704 55 348 0.0 0.0 0.00 0.00 0.00 67 1008.9
20260509123200 55 348 0.0 0.0 0.00 0.00 0.00 67 1009.1
20260509122656 55 347 0.0 1.0 0.00 0.00 0.00 66 1009.2
20260509122153 55 349 0.0 1.0 0.00 0.00 0.00 66 1009.2
20260509121649 55 158 0.0 1.0 0.00 0.00 0.00 67 1009.4
20260509121148 55 40 0.0 0.0 0.00 0.00 0.00 65 1009.4
20260509120646 55 46 0.0 0.0 0.00 0.00 0.00 67 1009.2
20260509120143 54 37 1.0 2.0 0.00 0.00 0.00 66 1009.1
20260509115640 54 54 0.0 1.0 0.00 0.00 0.00 67 1009.1
20260509115138 54 50 1.0 2.0 0.00 0.00 0.00 67 1009.0
20260509114636 54 20 1.0 1.0 0.00 0.00 0.00 70 1009.2
20260509114135 55 111 0.0 0.0 0.00 0.00 0.00 70 1009.1
20260509113633 54 137 0.0 0.0 0.00 0.00 0.00 64 1009.2
20260509113130 54 123 2.0 3.0 0.00 0.00 0.00 67 1009.2
20260509112626 53 140 1.0 2.0 0.00 0.00 0.00 70 1009.2
20260509112123 53 141 0.0 0.0 0.00 0.00 0.00 70 1009.1
20260509111620 54 94 0.0 1.0 0.00 0.00 0.00 67 1009.0
20260509111117 53 164 0.0 0.0 0.00 0.00 0.00 66 1008.8
20260509110614 54 163 0.0 1.0 0.00 0.00 0.00 68 1008.6
20260509110111 54 55 0.0 1.0 0.00 0.00 0.00 65 1008.8
20260509105609 54 35 1.0 2.0 0.00 0.00 0.00 66 1008.6
20260509105107 56 6 0.0 2.0 0.00 0.00 0.00 64 1008.6
20260509104603 56 114 3.0 4.0 0.00 0.00 0.00 54 1008.7
20260509104100 55 259 0.0 1.0 0.00 0.00 0.00 64 1008.6
20260509103558 55 88 0.0 0.0 0.00 0.00 0.00 59 1008.7
20260509103056 55 97 0.0 1.0 0.00 0.00 0.00 61 1008.5
20260509102553 56 25 2.0 2.0 0.00 0.00 0.00 59 1008.8
20260509102050 57 158 0.0 2.0 0.00 0.00 0.00 52 1008.7
20260509101546 57 133 5.0 6.0 0.00 0.00 0.00 50 1008.6
20260509101043 57 138 3.0 6.0 0.00 0.00 0.00 51 1008.6
20260509100540 57 112 7.0 8.0 0.00 0.00 0.00 50 1008.5
20260509100038 57 131 5.0 7.0 0.00 0.00 0.00 50 1008.3
20260509095534 58 129 5.0 8.0 0.00 0.00 0.00 50 1008.6
20260509095032 58 139 6.0 7.0 0.00 0.00 0.00 49 1008.3
20260509094527 57 147 6.0 7.0 0.00 0.00 0.00 51 1008.6
20260509094025 58 135 3.0 6.0 0.00 0.00 0.00 51 1008.6
20260509093523 58 127 6.0 7.0 0.00 0.00 0.00 49 1008.6
20260509093021 57 138 4.0 6.0 0.00 0.00 0.00 51 1008.7
20260509092518 57 138 4.0 4.0 0.00 0.00 0.00 50 1008.8
20260509092017 58 132 4.0 6.0 0.00 0.00 0.00 49 1008.7
20260509091514 58 151 4.0 4.0 0.00 0.00 0.00 51 1008.9
20260509091010 58 134 4.0 8.0 0.00 0.00 0.00 49 1008.6
20260509090508 58 148 4.0 6.0 0.00 0.00 0.00 50 1008.7
20260509090005 58 149 4.0 7.0 0.00 0.00 0.00 50 1008.8
20260509085502 58 124 5.0 6.0 0.00 0.00 0.00 50 1009.0
20260509084958 58 150 5.0 7.0 0.00 0.00 0.00 50 1008.9
20260509084455 58 148 5.0 7.0 0.00 0.00 0.00 49 1008.9
20260509083952 58 159 5.0 6.0 0.00 0.00 0.00 50 1008.9
20260509083450 58 120 7.0 8.0 0.00 0.00 0.00 48 1008.8
20260509082946 58 145 6.0 7.0 0.00 0.00 0.00 49 1008.8
20260509082444 58 154 5.0 6.0 0.00 0.00 0.00 48 1008.8
20260509081941 58 139 4.0 7.0 0.00 0.00 0.00 49 1008.9
20260509081438 58 172 5.0 6.0 0.00 0.00 0.00 49 1008.9
20260509080935 58 145 5.0 8.0 0.00 0.00 0.00 49 1009.0
20260509080433 58 161 3.0 4.0 0.00 0.00 0.00 49 1008.9
20260509075931 58 134 4.0 6.0 0.00 0.00 0.00 48 1008.9
20260509075427 58 140 4.0 7.0 0.00 0.00 0.00 49 1008.9
20260509074926 58 137 6.0 7.0 0.00 0.00 0.00 48 1009.0
20260509074423 58 143 6.0 7.0 0.00 0.00 0.00 48 1009.0
20260509073919 58 160 3.0 4.0 0.00 0.00 0.00 50 1008.9
20260509073415 58 186 4.0 4.0 0.00 0.00 0.00 50 1009.1
20260509072912 58 147 5.0 8.0 0.00 0.00 0.00 48 1009.1
20260509072408 58 150 2.0 4.0 0.00 0.00 0.00 51 1009.0
20260509071905 58 124 3.0 4.0 0.00 0.00 0.00 50 1009.1
20260509071402 59 159 4.0 7.0 0.00 0.00 0.00 48 1009.0
20260509070900 58 150 3.0 4.0 0.00 0.00 0.00 51 1009.0
20260509070356 59 195 3.0 6.0 0.00 0.00 0.00 50 1009.1
20260509065852 58 158 4.0 6.0 0.00 0.00 0.00 48 1009.2
20260509065348 58 177 4.0 4.0 0.00 0.00 0.00 51 1009.4
20260509064844 58 175 2.0 3.0 0.00 0.00 0.00 51 1009.5
20260509064342 58 155 3.0 3.0 0.00 0.00 0.00 51 1009.2
20260509063839 58 164 3.0 4.0 0.00 0.00 0.00 51 1009.2
20260509063335 57 147 4.0 7.0 0.00 0.00 0.00 51 1009.4
20260509062833 57 161 3.0 6.0 0.00 0.00 0.00 54 1009.2
20260509062330 55 171 2.0 3.0 0.00 0.00 0.00 56 1009.4
20260509061827 54 137 1.0 1.0 0.00 0.00 0.00 61 1009.5
20260509061325 55 177 0.0 2.0 0.00 0.00 0.00 62 1009.5
20260509060822 56 129 4.0 4.0 0.00 0.00 0.00 53 1009.6
20260509060319 53 127 3.0 3.0 0.00 0.00 0.00 58 1009.5
20260509055814 53 164 0.0 0.0 0.00 0.00 0.00 68 1009.7
20260509055310 53 144 1.0 1.0 0.00 0.00 0.00 66 1009.6
20260509054807 54 142 1.0 2.0 0.00 0.00 0.00 62 1009.7
20260509054304 54 141 2.0 2.0 0.00 0.00 0.00 62 1009.8
20260509053802 53 129 1.0 1.0 0.00 0.00 0.00 69 1009.6
20260509053259 53 129 0.0 0.0 0.00 0.00 0.00 71 1009.9
20260509052757 53 106 0.0 0.0 0.00 0.00 0.00 71 1009.9
20260509052254 53 318 0.0 0.0 0.00 0.00 0.00 71 1009.9
20260509051752 53 309 0.0 0.0 0.00 0.00 0.00 70 1010.0
20260509051250 54 309 0.0 1.0 0.00 0.00 0.00 69 1010.2
20260509050746 55 310 1.0 1.0 0.00 0.00 0.00 67 1010.1
20260509050242 57 236 1.0 6.0 0.00 0.00 0.00 57 1010.1
20260509045740 56 162 3.0 4.0 0.00 0.00 0.00 60 1009.8
20260509045236 55 129 3.0 3.0 0.00 0.00 0.00 67 1009.8
20260509044734 55 127 0.0 0.0 0.00 0.00 0.00 66 1010.0
20260509044232 55 67 0.0 0.0 0.00 0.00 0.00 65 1010.1
20260509043727 55 67 0.0 0.0 0.00 0.00 0.00 65 1010.1
20260509043224 55 66 0.0 0.0 0.00 0.00 0.00 65 1010.0
20260509042720 55 66 0.0 0.0 0.00 0.00 0.00 65 1010.1
20260509042216 55 62 0.0 0.0 0.00 0.00 0.00 65 1009.9
20260509041713 55 68 0.0 0.0 0.00 0.00 0.00 64 1010.0
20260509041210 55 74 0.0 0.0 0.00 0.00 0.00 64 1010.0
20260509040709 55 76 0.0 0.0 0.00 0.00 0.00 64 1009.9
20260509040205 55 76 0.0 0.0 0.00 0.00 0.00 65 1010.1
20260509035702 54 57 0.0 0.0 0.00 0.00 0.00 66 1009.9
20260509035159 55 55 0.0 1.0 0.00 0.00 0.00 67 1009.9
20260509034656 55 11 0.0 0.0 0.00 0.00 0.00 65 1009.9
20260509034153 55 10 0.0 0.0 0.00 0.00 0.00 64 1010.0
20260509033650 55 90 0.0 0.0 0.00 0.00 0.00 63 1010.1
20260509033147 56 96 0.0 0.0 0.00 0.00 0.00 62 1010.0
20260509032645 55 97 0.0 0.0 0.00 0.00 0.00 62 1009.9
20260509032141 55 122 0.0 0.0 0.00 0.00 0.00 63 1009.9
20260509031639 56 117 0.0 2.0 0.00 0.00 0.00 61 1009.9
20260509031136 55 222 0.0 1.0 0.00 0.00 0.00 63 1010.1
20260509030635 56 255 0.0 1.0 0.00 0.00 0.00 62 1010.1
20260509030131 56 247 1.0 2.0 0.00 0.00 0.00 62 1010.2
20260509025627 57 135 0.0 0.0 0.00 0.00 0.00 59 1010.1
20260509025123 58 126 0.0 0.0 0.00 0.00 0.00 56 1010.1
20260509024619 58 130 2.0 3.0 0.00 0.00 0.00 53 1010.4
20260509024115 58 118 2.0 3.0 0.00 0.00 0.00 55 1010.3
20260509023613 57 132 3.0 3.0 0.00 0.00 0.00 54 1010.2
20260509023110 57 141 2.0 3.0 0.00 0.00 0.00 58 1010.3
20260509022606 57 125 0.0 1.0 0.00 0.00 0.00 56 1010.1
20260509022104 56 66 0.0 1.0 0.00 0.00 0.00 57 1010.4
20260509021601 56 66 0.0 0.0 0.00 0.00 0.00 57 1010.0
20260509021058 57 65 0.0 0.0 0.00 0.00 0.00 57 1010.1
20260509020556 56 65 1.0 2.0 0.00 0.00 0.00 55 1010.2
20260509020053 57 87 0.0 1.0 0.00 0.00 0.00 55 1010.0
20260509015552 57 141 0.0 0.0 0.00 0.00 0.00 55 1010.0
20260509015049 57 141 0.0 1.0 0.00 0.00 0.00 54 1010.1
20260509014545 57 183 0.0 0.0 0.00 0.00 0.00 55 1010.1
20260509014041 57 185 0.0 0.0 0.00 0.00 0.00 56 1009.9
20260509013539 57 211 0.0 0.0 0.00 0.00 0.00 55 1009.9
20260509013034 57 124 0.0 0.0 0.00 0.00 0.00 54 1009.9
20260509012531 58 148 0.0 0.0 0.00 0.00 0.00 54 1009.8
20260509012028 58 148 0.0 0.0 0.00 0.00 0.00 53 1010.1
20260509011526 58 148 0.0 0.0 0.00 0.00 0.00 52 1010.0
20260509011023 58 148 0.0 1.0 0.00 0.00 0.00 53 1009.9
20260509010521 58 151 1.0 3.0 0.00 0.00 0.00 51 1009.9
20260509010017 58 136 0.0 1.0 0.00 0.00 0.00 51 1009.7
20260509005515 58 124 2.0 3.0 0.00 0.00 0.00 51 1010.0
20260509005015 59 117 0.0 1.0 0.00 0.00 0.00 50 1010.0
20260509004512 59 112 0.0 1.0 0.00 0.00 0.00 50 1009.8
20260509004009 60 112 1.0 2.0 0.00 0.00 0.00 48 1009.8
20260509003508 60 114 2.0 2.0 0.00 0.00 0.00 47 1009.9
20260509003004 61 115 1.0 2.0 0.00 0.00 0.00 44 1009.9
20260509002502 63 126 1.0 1.0 0.00 0.00 0.00 41 1009.7
20260509001959 63 134 1.0 1.0 0.00 0.00 0.00 40 1009.9
20260509001455 64 166 0.0 0.0 0.00 0.00 0.00 42 1009.8
20260509000952 64 190 0.0 0.0 0.00 0.00 0.00 39 1009.9
20260509000451 66 274 0.0 0.0 0.00 0.00 0.00 39 1009.8
20260508235946 67 296 0.0 0.0 0.00 0.00 0.00 36 1009.5
20260508235444 68 296 0.0 0.0 0.00 0.00 0.00 35 1009.7
20260508234940 70 296 0.0 0.0 0.00 0.00 0.00 34 1009.5
20260508234437 70 296 0.0 1.0 0.00 0.00 0.00 32 1009.4
20260508233935 71 252 0.0 0.0 0.00 0.00 0.00 31 1009.4
20260508233434 71 275 0.0 2.0 0.00 0.00 0.00 31 1009.4
20260508232930 71 257 0.0 2.0 0.00 0.00 0.00 32 1009.4
20260508232427 72 273 1.0 2.0 0.00 0.00 0.00 29 1009.4
20260508231925 72 231 1.0 2.0 0.00 0.00 0.00 32 1009.2
20260508231422 72 252 0.0 2.0 0.00 0.00 0.00 30 1009.2
20260508230919 71 316 1.0 2.0 0.00 0.00 0.00 30 1009.4
20260508230415 72 320 1.0 3.0 0.00 0.00 0.00 29 1009.1
20260508225912 72 243 3.0 4.0 0.00 0.00 0.00 30 1009.4
20260508225409 73 269 0.0 3.0 0.00 0.00 0.00 29 1009.2
20260508224907 71 210 1.0 2.0 0.00 0.00 0.00 31 1009.2
20260508224404 72 248 2.0 2.0 0.00 0.00 0.00 29 1009.4
20260508223901 73 243 3.0 6.0 0.00 0.00 0.00 29 1009.4
20260508223359 73 276 1.0 3.0 0.00 0.00 0.00 28 1009.2
20260508222856 72 235 3.0 9.0 0.00 0.00 0.00 29 1009.4
20260508222353 72 224 3.0 6.0 0.00 0.00 0.00 29 1009.4
20260508221849 73 302 5.0 8.0 0.00 0.00 0.00 28 1009.4
20260508221345 74 278 2.0 4.0 0.00 0.00 0.00 29 1009.5
20260508220842 72 271 2.0 7.0 0.00 0.00 0.00 30 1009.5
20260508220338 71 308 5.0 7.0 0.00 0.00 0.00 29 1009.4
20260508215835 69 222 8.0 11.0 0.00 0.00 0.00 30 1009.5
20260508215332 70 229 6.0 15.0 0.00 0.00 0.00 30 1009.5
20260508214829 70 283 5.0 9.0 0.00 0.00 0.00 29 1009.4
20260508214326 72 239 2.0 4.0 0.00 0.00 0.00 31 1009.4
20260508213822 70 326 2.0 4.0 0.00 0.00 0.00 30 1009.2
20260508213319 69 288 5.0 8.0 0.00 0.00 0.00 31 1009.6